User: anonymous   Login
Location: Unspecified
(0.0000°N, 0.0000°E)
Time: 06:44:28
(UTC+01:00)
Language:

NOAA 12 - Orbit

View from above orbital plane
View from above orbital plane
View from above satellite
View from above satellite

Ground track
Ground track

The orbit data is extracted from the following two-line orbital elements,

1 21263U 91032A   16340.54667806 -.00000015  00000-0  11628-4 0  9994
2 21263  98.5813   2.8028 0014708 124.8648 235.3917 14.25829073329132
Epoch (UTC): 05 December 2016 13:07:12
Eccentricity: 0.0014708
inclination: 98.5813°
perigee height: 795 km
apogee height: 816 km
right ascension of ascending node: 2.8028°
argument of perigee: 124.8648°
revolutions per day: 14.25829073
mean anomaly at epoch: 235.3917°
orbit number at epoch: 32913

The dashed part of the orbit path shows where the satellite is in the earth's shadow,  

DLR